Date,TemperatureHighF,TemperatureAvgF,TemperatureLowF,DewpointHighF,DewpointAvgF,DewpointLowF,HumidityHigh,HumidityAvg,HumidityLow,PressureMaxIn,PressureMinIn,WindSpeedMaxMPH,WindSpeedAvgMPH,GustSpeedMaxMPH,PrecipitationSumIn
2012-1-1,47.0,41.8,37.6,39.5,35.5,33.2,90,79,61,29.48,29.02,5,1,13,0.00
2012-1-2,39.6,30.3,23.0,34.9,19.6,13.7,84,64,52,29.17,29.03,4,2,19,0.00
2012-1-3,23.2,13.1,4.7,15.7,2.4,-5.4,78,62,48,29.57,29.16,4,2,15,0.00
2012-1-4,19.4,10.9,4.5,5.9,0.1,-4.1,73,62,42,29.61,29.37,2,0,7,0.00
2012-1-5,31.3,25.9,17.8,21.5,17.5,9.7,79,70,60,29.32,29.22,3,1,13,0.00
2012-1-6,49.2,33.5,22.1,31.4,25.0,18.6,87,72,44,29.29,29.08,2,1,7,0.00
2012-1-7,51.9,37.4,28.4,34.1,28.9,25.8,92,73,48,29.37,29.09,3,1,11,0.00
2012-1-8,36.5,30.3,20.0,26.6,19.3,13.9,79,64,57,29.73,29.37,3,1,14,0.00
2012-1-9,38.5,27.3,17.8,17.9,13.6,7.6,84,60,28,29.72,29.34,2,1,9,0.00
2012-1-10,36.5,32.4,25.7,27.7,22.9,18.0,78,68,61,29.41,29.24,2,1,11,0.00
2012-1-11,41.5,32.8,23.5,28.5,23.5,20.2,88,70,48,29.49,29.26,3,1,12,0.00
2012-1-12,36.3,34.6,32.9,34.1,32.4,28.9,96,92,83,29.26,28.88,3,1,15,0.00
2012-1-13,36.8,28.3,20.3,35.8,23.6,11.8,96,83,67,29.10,28.61,5,2,20,0.00
2012-1-14,24.5,19.6,10.9,14.8,9.5,1.1,73,65,57,29.48,29.11,3,2,14,0.00
2012-1-15,11.7,5.6,-1.4,0.9,-7.6,-11.9,72,55,37,30.01,29.49,3,1,12,0.00
2012-1-16,29.3,13.8,-3.9,21.8,2.6,-10.1,76,62,40,30.01,29.47,4,1,13,0.00
2012-1-17,49.2,36.5,28.5,41.5,32.2,22.2,96,85,68,29.47,28.86,6,2,25,0.00
2012-1-18,47.7,24.6,11.1,37.7,12.3,4.1,74,59,49,29.58,28.89,5,2,24,0.00
2012-1-19,24.8,16.3,4.5,19.7,7.2,-3.2,86,69,31,29.63,29.30,3,1,10,0.00
2012-1-20,25.3,16.3,9.7,19.5,6.0,1.7,81,64,49,29.71,29.31,3,1,13,0.00
2012-1-21,22.4,15.5,6.9,14.4,8.8,2.6,83,75,59,29.77,29.48,1,0,5,0.00
2012-1-22,26.4,15.9,1.7,22.1,8.8,-3.0,84,74,50,29.94,29.78,2,1,9,0.00
2012-1-23,47.3,36.5,26.6,45.2,34.3,22.2,96,92,83,29.78,29.24,5,1,14,0.00
2012-1-24,45.1,39.3,31.8,41.8,32.4,24.5,97,77,64,29.51,29.24,3,2,12,0.00
2012-1-25,31.6,29.2,27.9,24.3,22.0,21.0,80,74,68,29.70,29.51,3,1,14,0.00
2012-1-26,34.0,30.3,27.0,32.2,26.0,21.0,93,84,74,29.62,29.22,2,1,7,0.00
2012-1-27,51.7,38.6,33.7,50.3,35.6,23.5,98,89,64,29.22,28.72,4,2,27,0.00
2012-1-28,42.3,34.8,29.5,26.3,23.0,18.1,74,62,45,29.40,29.22,3,2,19,0.00
2012-1-29,35.2,31.1,25.7,18.5,13.3,9.9,60,47,41,29.52,29.35,4,2,15,0.00
2012-1-30,32.2,25.3,18.8,24.2,15.1,9.7,83,66,47,29.68,29.33,3,1,14,0.00
2012-1-31,54.4,41.4,24.4,35.2,26.6,18.0,85,57,40,29.61,29.35,3,1,15,0.00
2012-2-1,53.3,47.4,37.0,43.3,34.7,28.7,89,63,39,29.43,29.22,4,2,16,0.00
2012-2-2,36.9,31.8,24.1,29.0,23.9,16.3,78,72,68,29.68,29.41,2,1,12,0.00
2012-2-3,35.8,28.8,21.3,23.3,17.3,12.8,78,63,44,29.86,29.69,3,1,15,0.00
2012-2-4,37.9,31.9,23.8,24.8,21.1,17.7,80,65,49,29.69,29.54,3,1,13,0.00
2012-2-5,31.9,25.2,18.6,18.9,14.9,12.0,84,66,46,29.59,29.52,3,1,14,0.00
2012-2-6,49.1,34.1,23.8,24.0,19.8,13.2,81,60,24,29.53,29.32,3,1,12,0.00
2012-2-7,38.2,33.1,23.0,25.4,22.2,14.0,70,64,57,29.68,29.33,2,1,14,0.00
2012-2-8,34.3,26.5,17.2,16.0,12.6,4.8,80,58,29,29.71,29.49,2,0,7,0.00
2012-2-9,40.8,28.8,21.4,16.8,14.1,8.7,74,56,27,29.55,29.45,3,1,11,0.00
2012-2-10,38.6,28.8,18.1,20.8,17.0,14.0,86,63,43,29.54,29.29,2,0,7,0.00
2012-2-11,33.4,28.2,13.6,24.3,20.0,2.3,87,72,55,29.28,29.02,3,1,13,0.00
2012-2-12,23.2,15.2,8.1,15.3,4.2,-8.6,79,62,45,29.31,29.14,4,2,19,0.00
2012-2-13,37.8,27.2,18.0,16.0,13.9,10.3,79,59,33,29.42,29.27,4,2,16,0.00
2012-2-14,36.9,29.5,20.8,28.2,21.8,14.0,84,73,55,29.48,29.40,1,0,4,0.00
2012-2-15,32.2,31.3,31.0,27.9,27.6,27.0,88,86,81,29.47,29.46,0,0,2,0.00
2012-2-21,38.5,27.8,12.4,29.4,17.5,8.5,85,67,42,29.78,29.21,3,1,14,0.00
2012-2-22,48.8,41.7,35.5,34.7,29.2,23.6,86,63,37,29.21,28.86,3,2,18,0.00
2012-2-23,41.6,35.9,28.2,36.0,28.6,23.1,95,76,51,29.20,28.79,4,1,16,0.00
2012-2-24,36.8,32.1,28.7,33.9,28.8,24.4,95,88,63,29.16,28.75,5,1,22,0.00
2012-2-25,35.5,29.1,22.9,24.3,18.3,8.9,86,64,50,29.40,28.76,5,4,25,0.00
2012-2-26,33.1,24.9,18.6,16.4,11.4,8.2,79,58,37,29.85,29.40,4,2,17,0.00
2012-2-27,48.9,34.1,15.7,28.6,19.8,12.0,87,60,29,29.82,29.46,3,1,16,0.00
2012-2-28,38.3,31.9,26.3,22.1,19.1,16.5,75,60,43,29.81,29.56,4,2,21,0.00
2012-2-29,31.9,29.2,27.0,28.5,23.3,18.2,88,79,61,29.78,29.19,3,1,11,0.00
2012-3-1,33.8,32.3,30.4,30.9,29.6,27.9,95,90,83,29.36,29.09,3,0,13,0.00
2012-3-2,34.6,31.1,28.8,29.3,28.0,26.8,94,88,77,29.47,29.16,3,1,12,0.00
2012-3-3,50.4,40.0,32.5,39.8,25.6,10.1,96,63,20,29.14,28.81,5,2,19,0.00
2012-3-4,35.5,30.0,23.6,22.2,17.1,13.5,76,59,40,29.12,28.98,3,1,10,0.00
2012-3-5,29.3,22.0,15.1,16.8,5.7,0.5,76,51,31,29.78,29.12,4,2,14,0.00
2012-3-6,38.2,24.7,13.8,18.3,9.8,3.2,73,56,26,29.99,29.79,3,1,10,0.00
2012-3-7,60.9,43.1,25.3,35.3,23.5,18.1,79,51,20,29.90,29.63,3,1,18,0.00
2012-3-8,63.5,54.6,34.9,49.2,42.0,32.0,89,63,48,29.63,29.15,6,3,21,0.00
2012-3-9,37.5,31.1,23.9,31.2,21.0,7.3,92,67,47,29.65,29.31,3,2,16,0.00
2012-3-10,32.5,25.1,20.2,18.0,12.7,6.8,77,60,43,29.93,29.65,3,1,13,0.00
2012-3-11,59.9,37.5,21.4,31.1,21.5,15.3,79,58,25,29.88,29.69,3,1,10,0.00
2012-3-12,68.4,46.6,29.1,41.4,29.7,23.2,87,59,18,29.75,29.49,3,1,7,0.00
2012-3-13,69.6,55.1,44.2,49.0,44.6,38.7,87,70,42,29.49,29.27,3,1,12,0.00
2012-3-14,58.9,46.0,34.1,41.2,30.6,20.7,93,61,24,29.64,29.40,3,1,12,0.00
2012-3-15,62.9,46.0,31.0,38.2,31.8,25.0,83,61,30,29.72,29.58,2,0,10,0.00
2012-3-16,59.8,47.0,39.5,50.6,42.9,35.8,94,86,69,29.63,29.48,2,0,10,0.00
2012-3-17,68.8,49.8,37.2,46.9,39.3,29.7,96,73,26,29.74,29.61,3,1,7,0.00
2012-3-18,77.0,54.0,36.8,49.8,40.1,34.8,96,67,22,29.74,29.57,3,1,10,0.00
2012-3-19,73.3,55.4,42.1,57.8,48.7,40.2,97,81,45,29.66,29.55,2,0,6,0.74
2012-3-20,73.7,56.8,43.1,58.4,48.0,42.3,98,77,38,29.73,29.62,2,0,7,0.00
2012-3-21,72.8,55.7,41.2,53.0,47.3,39.9,96,77,43,29.79,29.65,2,1,9,0.00
2012-3-22,75.6,57.2,44.3,53.2,48.4,43.0,96,76,37,29.69,29.48,3,1,10,0.00
2012-3-23,71.6,57.3,46.1,53.8,42.1,31.4,96,63,24,29.58,29.46,4,1,10,0.00
2012-3-24,59.6,53.3,48.5,43.0,28.4,12.0,75,42,18,29.49,29.36,3,1,10,0.00
2012-3-25,63.2,49.8,38.6,47.3,37.5,19.7,89,65,35,29.37,29.13,2,1,9,0.01
2012-3-26,52.0,38.1,25.4,45.4,18.7,-3.7,81,48,27,29.55,29.09,5,3,20,0.00
2012-3-27,44.8,30.8,18.8,12.5,0.4,-5.9,48,29,12,29.70,29.54,3,2,14,0.00
2012-3-28,63.9,43.7,30.3,50.0,31.0,11.1,92,62,42,29.53,28.94,2,1,11,0.22
2012-3-29,46.1,38.7,34.1,39.6,31.2,22.0,89,74,61,29.42,29.02,3,2,17,0.04
2012-3-30,49.8,38.3,28.5,22.3,14.9,8.3,62,41,19,29.50,29.35,3,2,13,0.00
2012-3-31,40.2,36.5,34.6,33.8,32.1,22.1,92,84,48,29.89,0.00,2,0,9,0.22
2012-4-1,42.9,37.2,34.6,36.0,33.2,30.0,94,86,63,29.88,29.63,2,0,6,0.23
2012-4-2,48.3,38.9,32.8,33.9,24.6,13.9,94,61,29,29.87,29.61,4,2,18,0.01
2012-4-3,56.7,41.6,28.5,25.7,13.6,3.8,68,37,13,29.93,29.75,3,1,18,0.00
2012-4-4,56.5,44.5,31.8,31.3,23.8,13.1,69,46,25,29.76,29.53,5,2,23,0.00
2012-4-5,45.1,36.6,30.1,24.6,22.3,19.4,76,58,38,29.94,29.70,4,1,14,0.00
2012-4-6,49.6,37.0,25.3,23.2,18.5,12.7,81,51,23,30.04,29.91,4,1,16,0.00
2012-4-7,51.9,40.7,30.0,19.6,15.8,9.3,62,38,21,30.06,29.97,4,2,17,0.00
2012-4-8,57.6,44.6,29.1,37.5,20.4,11.4,78,41,19,30.01,29.64,4,2,17,0.01
2012-4-9,50.4,43.7,38.6,34.9,24.0,18.0,77,47,29,29.68,29.57,4,2,20,0.00
2012-4-10,51.9,43.3,32.8,30.9,23.0,16.8,75,47,27,29.75,29.59,4,1,15,0.00
2012-4-11,45.7,38.0,31.3,34.8,29.1,25.1,87,71,49,29.92,29.74,2,0,9,0.00
2012-4-12,51.3,42.2,34.4,33.4,30.1,25.6,87,64,39,30.11,29.91,3,1,13,0.01
2012-4-13,58.9,42.7,27.0,29.4,24.6,18.7,88,55,21,30.20,30.08,3,1,14,0.00
2012-4-14,67.1,49.0,29.8,42.8,27.2,18.9,82,50,17,30.20,29.95,3,1,10,0.03
2012-4-15,66.8,57.7,50.2,54.1,50.1,36.9,95,77,50,29.98,29.90,2,0,15,0.04
2012-4-16,85.7,68.4,49.4,55.0,48.3,40.3,94,56,22,29.97,29.78,4,1,13,0.00
2012-4-17,73.9,60.3,45.8,54.9,37.4,24.5,65,45,21,30.20,29.80,3,1,13,0.00
2012-4-18,57.6,45.1,34.4,33.0,28.1,25.0,76,54,30,30.25,30.10,3,1,9,0.00
2012-4-19,70.9,50.2,30.0,39.9,32.3,26.9,91,57,24,30.10,29.92,3,1,10,0.00
2012-4-20,73.3,57.8,42.1,47.7,41.0,34.1,89,59,24,29.96,29.77,3,1,21,0.00
2012-4-21,71.5,57.2,45.2,56.1,49.8,43.3,93,78,50,29.77,29.60,3,1,10,0.53
2012-4-22,45.8,42.5,37.2,43.3,39.5,35.5,95,89,74,29.80,29.53,2,0,9,0.98
2012-4-23,49.9,42.3,37.0,47.4,39.3,35.1,97,89,77,29.56,29.15,3,1,10,0.74
2012-4-24,46.4,38.3,32.9,35.3,31.8,28.4,94,78,51,29.62,29.25,3,1,12,0.06
2012-4-25,49.1,40.8,29.4,34.3,29.1,25.1,92,65,40,29.90,29.62,3,1,13,0.00
2012-4-26,52.8,41.6,27.0,46.7,33.9,25.0,93,76,40,29.91,29.54,4,1,14,0.02
2012-4-27,48.9,36.6,33.1,43.3,26.9,20.9,89,68,57,30.10,29.56,4,2,19,0.01
2012-4-28,53.1,40.6,29.1,28.0,18.0,10.9,69,44,19,30.21,30.07,3,1,13,0.01
2012-4-29,54.4,40.7,27.5,26.3,16.2,7.9,73,42,18,30.23,30.07,4,2,19,0.00
2012-4-30,62.6,46.6,27.0,38.5,20.7,13.1,73,41,18,30.33,30.07,2,1,9,0.00
2012-5-1,61.0,52.0,46.1,53.2,46.5,36.9,94,82,63,30.08,29.94,2,0,7,0.25
2012-5-2,54.4,51.1,48.5,50.9,48.4,46.6,95,91,81,30.09,30.01,1,0,6,0.00
2012-5-3,76.5,57.4,47.6,57.1,51.0,46.2,96,82,46,30.09,29.95,2,0,9,0.01
2012-5-4,76.3,63.0,54.7,61.6,56.5,52.8,97,82,45,30.03,29.80,2,1,10,0.30
2012-5-5,67.6,58.2,48.2,57.2,50.2,40.6,96,77,47,30.02,29.85,3,0,14,0.01
2012-5-6,68.6,53.5,38.3,49.8,43.2,34.8,91,70,48,30.06,29.98,2,0,6,0.00
2012-5-7,67.4,55.2,46.0,51.3,47.3,44.1,95,77,46,30.06,29.95,2,0,9,0.13
2012-5-8,57.3,53.5,50.1,55.6,49.4,39.3,96,87,62,29.97,29.75,3,1,11,0.59
2012-5-9,66.6,59.0,52.5,59.2,53.2,46.1,97,83,49,29.76,29.55,2,0,9,0.03
2012-5-10,52.8,46.9,41.8,50.5,43.3,37.8,95,88,73,29.75,29.47,3,1,13,0.19
2012-5-11,61.2,48.9,34.6,38.0,31.6,21.8,94,57,22,30.08,29.74,4,1,16,0.00
2012-5-12,74.7,55.6,36.0,49.0,37.5,32.0,91,58,22,30.20,30.08,3,1,11,0.00
2012-5-13,76.7,61.9,48.2,52.7,45.7,38.6,89,60,28,30.15,30.03,2,0,11,0.00
2012-5-14,68.6,58.5,54.2,57.0,54.3,49.5,96,86,58,30.09,30.03,2,0,10,0.51
2012-5-15,61.3,58.5,56.2,60.2,57.5,55.4,97,96,95,30.04,29.89,1,0,5,1.17
2012-5-16,77.7,64.5,55.4,62.3,53.8,42.4,98,74,30,29.90,29.72,2,0,11,0.01
2012-5-17,63.1,51.3,39.8,45.7,35.8,26.9,89,59,28,30.16,29.87,3,1,16,0.00
2012-5-18,72.5,52.7,33.4,46.9,36.4,25.0,94,62,17,30.23,30.10,1,0,6,0.00
2012-5-19,79.8,60.1,41.5,53.9,43.7,36.1,94,62,26,30.18,30.07,2,0,9,0.00
2012-5-20,82.0,63.4,47.0,56.2,49.5,44.8,95,66,29,30.22,30.13,2,0,6,0.00
2012-5-21,62.4,56.8,47.4,59.6,53.2,43.9,96,88,74,30.19,29.96,1,0,4,0.78
2012-5-22,67.8,61.9,58.0,63.1,59.9,57.2,97,93,79,29.96,29.76,1,0,4,0.28
2012-5-23,74.4,65.0,59.5,63.5,60.4,57.8,97,86,62,29.98,29.80,1,0,6,0.02
2012-5-24,68.8,63.6,58.1,63.4,60.3,57.0,97,89,76,30.11,29.98,1,0,4,0.03
2012-5-25,73.5,65.5,59.6,63.4,60.9,56.7,96,86,65,30.13,30.02,1,0,5,0.01
2012-5-26,79.6,67.6,59.0,67.5,61.0,56.4,97,81,48,30.11,30.03,1,0,7,0.00
2012-5-27,81.4,66.0,50.2,64.4,55.6,47.7,92,72,39,30.16,29.95,1,0,7,0.00
2012-5-28,85.3,72.0,61.2,67.1,62.7,54.6,96,76,36,29.96,29.82,2,0,7,0.00
2012-5-29,89.9,72.4,63.4,68.8,64.1,60.1,96,79,37,29.83,29.59,2,0,9,0.47
2012-5-30,78.5,65.3,56.9,64.3,59.6,44.2,97,85,31,29.72,29.64,3,0,13,0.19
2012-5-31,69.4,58.9,48.3,56.1,48.5,44.4,97,72,42,29.93,29.72,2,0,13,0.00
2012-6-1,64.3,55.1,41.9,54.3,47.8,40.3,96,78,57,30.01,29.78,2,1,9,0.05
2012-6-2,65.2,56.9,47.0,58.1,52.0,44.8,97,85,60,29.79,29.64,2,0,11,0.75
2012-6-3,65.5,52.7,41.2,54.8,46.8,39.7,96,82,51,29.75,29.60,2,0,12,0.08
2012-6-4,53.6,50.2,47.0,50.0,47.1,44.5,96,89,73,29.81,29.57,1,0,4,0.10
2012-6-5,57.6,51.8,45.4,50.0,45.9,43.0,95,81,65,29.92,29.79,1,0,6,0.00
2012-6-6,64.0,53.3,43.1,54.1,47.6,41.5,96,83,55,29.97,29.89,2,0,6,0.19
2012-6-7,70.6,56.6,46.7,54.0,49.1,43.8,97,79,41,29.98,29.87,2,0,7,0.01
2012-6-8,75.3,58.1,44.9,61.9,51.1,43.8,96,81,34,29.93,29.78,2,0,10,0.05
2012-6-9,63.5,57.7,51.9,60.6,56.1,50.6,97,94,86,29.95,29.80,0,0,5,0.09
2012-6-10,81.2,66.9,56.5,65.5,60.6,55.5,98,82,50,30.10,29.95,1,0,6,0.03
2012-6-11,76.1,66.9,59.8,63.9,59.5,49.2,97,79,57,30.16,30.10,2,0,6,0.00
2012-6-12,65.5,62.7,60.7,60.5,57.9,51.4,97,85,64,30.11,29.83,2,0,9,0.54
2012-6-13,69.9,62.2,53.5,60.4,54.2,49.4,97,77,49,30.08,29.83,2,1,10,0.01
2012-6-14,74.7,60.6,47.6,57.0,51.4,46.3,96,74,47,30.23,30.08,2,0,7,0.00
2012-6-15,77.4,61.3,46.0,56.4,50.9,44.5,96,72,37,30.28,30.20,2,0,6,0.00
2012-6-16,78.6,63.0,48.0,58.3,53.0,46.6,96,73,43,30.30,30.15,1,0,6,0.00
2012-6-17,73.3,62.0,51.6,58.1,54.5,49.9,96,78,54,30.17,29.99,1,0,6,0.06
2012-6-18,70.6,61.3,52.6,57.0,54.0,51.1,96,78,58,30.06,30.01,1,0,6,0.00
2012-6-19,78.6,68.4,60.2,67.5,60.9,54.1,93,78,63,30.07,29.98,1,0,6,0.00
2012-6-20,89.7,75.5,64.3,72.5,67.2,62.8,97,78,49,30.03,29.90,2,0,9,0.00
2012-6-21,89.9,75.9,64.5,69.1,64.6,60.1,95,72,37,29.91,29.74,2,0,11,0.00
2012-6-22,83.4,71.1,62.0,66.9,62.9,57.4,96,77,52,29.80,29.69,2,0,9,0.00
2012-6-23,78.1,65.3,56.0,57.4,53.7,48.2,93,70,35,29.97,29.79,2,0,11,0.01
2012-6-24,77.6,64.3,49.8,58.4,52.5,46.5,95,70,34,30.01,29.83,2,0,9,0.00
2012-6-25,68.6,60.4,52.9,59.9,54.3,45.2,96,81,57,29.83,29.64,2,0,11,0.12
2012-6-26,63.2,55.3,50.8,50.6,48.4,44.3,93,78,60,29.73,29.65,2,1,13,0.06
2012-6-27,75.1,62.1,50.2,50.6,45.9,36.3,91,61,25,29.80,29.67,2,0,14,0.00
2012-6-28,83.4,66.1,50.1,61.6,52.0,44.9,94,66,27,29.80,29.67,2,0,11,0.00
2012-6-29,88.4,72.5,61.3,68.3,60.6,53.6,96,70,33,29.69,29.58,2,0,12,0.03
2012-6-30,84.9,70.4,57.0,62.8,55.8,45.7,94,65,27,29.73,29.64,2,0,12,0.03
2012-7-1,84.7,71.1,60.4,65.6,57.4,46.6,95,67,32,29.85,29.73,2,1,13,0.00
2012-7-2,79.0,66.7,55.9,58.1,53.7,49.6,92,66,39,29.91,29.84,2,0,11,0.00
2012-7-3,83.2,68.6,54.4,62.8,54.3,45.3,92,65,28,29.94,29.76,2,0,11,0.00
2012-7-4,84.3,73.7,65.3,68.4,64.6,59.9,95,75,51,29.79,29.66,2,0,12,0.02
2012-7-5,84.9,72.7,60.2,68.0,59.0,46.3,95,68,27,29.85,29.68,2,1,13,0.00
2012-7-6,88.6,71.2,54.1,68.2,58.2,47.7,95,69,27,29.93,29.80,2,0,11,0.00
2012-7-7,82.8,70.6,61.2,66.4,63.0,58.1,95,79,48,29.86,29.75,1,0,6,0.03
2012-7-8,82.8,70.4,58.1,63.0,57.0,50.6,95,67,36,29.86,29.79,2,1,11,0.02
2012-7-9,77.0,64.6,51.4,56.5,50.7,44.8,94,65,33,29.98,29.86,2,0,12,0.00
2012-7-10,80.7,63.9,47.9,59.0,50.0,43.8,92,66,31,30.06,29.96,2,0,12,0.00
2012-7-11,58.1,54.8,53.3,53.4,52.3,51.3,93,92,89,30.08,30.06,0,0,0,0.00
2012-7-12,87.0,71.3,57.6,62.5,56.3,48.0,95,65,27,30.16,30.05,2,0,6,0.00
2012-7-13,87.0,72.9,59.0,64.9,59.9,55.2,93,67,34,30.16,30.07,1,0,6,0.00
2012-7-14,87.0,73.9,65.0,64.9,60.7,52.1,95,68,32,30.15,30.03,1,0,5,0.01
2012-7-15,78.6,69.9,62.3,72.3,65.9,59.9,96,88,66,30.08,29.88,0,0,3,0.25
2012-7-16,82.0,72.3,64.3,68.4,64.9,61.4,97,80,55,29.88,29.74,1,0,9,0.00
2012-7-17,91.4,76.0,62.1,66.5,62.1,56.8,95,67,32,29.82,29.65,3,1,13,0.00
2012-7-18,89.5,77.2,67.3,68.5,65.3,61.2,92,69,44,29.85,29.69,2,0,11,0.00
2012-7-19,83.8,72.2,64.2,63.1,56.8,45.3,89,62,27,29.93,29.83,1,0,7,0.01
2012-7-20,67.3,61.2,58.1,63.3,59.0,57.0,96,93,87,30.04,29.90,0,0,3,0.58
2012-7-21,78.5,65.3,56.3,59.6,55.9,50.9,96,75,39,30.07,29.99,1,0,4,0.00
2012-7-22,81.8,67.8,54.1,61.6,57.3,52.7,96,73,40,30.10,30.02,1,0,6,0.00
2012-7-23,83.6,70.5,63.2,71.6,65.2,59.6,97,85,55,30.04,29.72,3,0,10,1.27
2012-7-24,82.0,72.6,63.9,66.4,62.0,47.3,92,70,45,29.75,29.57,3,1,13,0.00
2012-7-25,78.5,65.9,54.7,58.0,51.5,45.5,86,62,32,29.87,29.74,2,0,13,0.00
2012-7-26,83.0,69.4,60.5,69.6,63.1,55.1,96,82,55,29.76,29.54,2,0,10,0.34
2012-7-27,80.5,70.9,65.6,70.0,65.0,62.1,97,83,54,29.86,29.59,2,0,7,0.01
2012-7-28,72.1,66.9,62.1,70.0,65.1,60.7,96,94,88,29.91,29.84,1,0,7,0.96
2012-7-29,74.9,66.9,61.8,66.7,63.6,60.3,97,90,63,30.02,29.89,1,0,4,0.35
2012-7-30,81.1,69.4,61.0,65.3,61.7,51.1,96,79,36,30.07,29.98,1,0,5,0.00
2012-7-31,78.5,69.4,63.1,66.2,63.3,61.1,94,82,63,30.01,29.84,2,0,6,0.00
2012-8-1,80.3,70.1,61.6,66.2,63.3,60.4,96,81,54,29.86,29.75,1,0,6,0.00
2012-8-2,83.2,70.5,62.4,64.8,61.9,57.4,96,77,43,29.89,29.79,2,0,10,0.00
2012-8-3,88.0,71.8,60.4,66.6,62.0,58.7,96,75,39,30.05,29.87,1,0,6,0.00
2012-8-4,87.8,74.0,62.6,70.7,65.0,61.1,96,76,48,30.15,30.05,1,0,6,0.00
2012-8-5,82.0,74.9,70.6,74.8,68.8,66.5,95,82,63,30.11,29.85,2,0,10,0.32
2012-8-6,74.0,67.7,56.5,68.7,59.1,54.2,94,76,50,29.99,29.88,2,0,10,0.00
2012-8-7,80.3,64.1,50.4,61.0,53.7,43.6,96,74,28,30.02,29.91,1,0,7,0.00
2012-8-8,85.1,67.9,53.9,65.1,58.4,52.7,96,76,37,29.98,29.88,1,0,6,0.00
2012-8-9,86.7,71.0,59.8,68.4,62.1,58.5,96,76,41,29.93,29.79,1,0,6,0.00
2012-8-10,70.3,66.3,62.6,69.4,64.4,60.5,97,94,84,29.82,29.74,1,0,3,0.93
2012-8-11,77.6,68.8,63.4,71.3,65.5,61.3,97,90,65,29.86,29.73,1,0,7,0.55
2012-8-12,77.6,67.4,58.9,62.5,59.5,55.0,96,78,47,29.90,29.83,2,0,9,0.00
2012-8-13,76.8,65.7,58.0,62.9,59.0,56.0,96,81,54,29.95,29.89,2,0,7,0.00
2012-8-14,71.8,62.7,54.8,63.9,59.2,53.7,96,89,71,29.95,29.83,1,0,4,0.02
2012-8-15,72.5,65.3,59.2,66.4,62.5,58.3,97,91,71,29.87,29.80,1,0,5,0.73
2012-8-16,78.3,66.3,56.9,62.5,58.7,53.8,98,79,45,29.91,29.81,1,0,7,0.00
2012-8-17,79.8,63.9,53.5,65.7,58.8,52.4,97,85,57,29.86,29.73,1,0,9,0.01
2012-8-18,71.3,61.6,51.9,58.7,53.8,46.7,97,78,43,29.94,29.80,2,0,9,0.01
2012-8-19,71.1,56.6,44.3,54.2,49.3,43.0,96,79,49,29.99,29.88,1,0,3,0.00
2012-8-20,73.9,60.2,48.5,61.0,55.2,47.2,97,85,56,29.92,29.82,1,0,6,0.03
2012-8-21,73.9,61.8,52.2,59.0,54.1,48.5,97,79,43,30.09,29.88,1,0,6,0.00
2012-8-22,79.2,61.3,47.9,62.9,53.3,46.8,96,79,36,30.14,30.06,1,0,7,0.00
2012-8-23,80.1,64.1,52.0,61.7,55.0,50.9,97,76,40,30.15,30.06,1,0,6,0.00
2012-8-24,82.8,64.6,51.0,65.2,56.3,49.6,96,78,35,30.19,30.10,1,0,4,0.00
2012-8-25,81.1,66.5,55.9,64.2,59.3,54.8,96,80,49,30.25,30.16,1,0,5,0.04
2012-8-26,62.9,62.1,62.0,59.9,59.7,59.6,92,92,92,30.23,30.23,0,0,0,0.00
2012-8-27,78.6,65.6,55.1,69.1,61.6,53.7,96,88,61,30.17,29.90,1,0,7,0.02
2012-8-28,78.3,68.5,58.9,67.1,61.6,55.6,97,81,49,29.90,29.75,2,0,11,0.98
2012-8-29,71.8,59.8,49.8,56.3,50.1,44.1,96,74,39,30.01,29.88,2,0,7,0.00
2012-8-30,76.3,59.3,43.1,58.0,49.8,41.5,95,75,41,30.10,30.01,1,0,7,0.00
2012-8-31,84.9,66.6,50.8,62.6,54.9,49.2,97,72,30,30.03,29.85,2,0,9,0.00
2012-9-1,81.6,68.9,57.5,63.6,58.7,53.5,95,73,38,30.04,29.86,2,0,7,0.00
2012-9-2,80.1,64.0,52.8,59.9,54.5,49.7,96,76,36,30.07,29.98,2,0,6,0.00
2012-9-3,71.3,60.8,51.6,61.7,55.1,50.2,96,83,59,30.13,30.06,1,0,6,0.08
2012-9-4,73.5,66.6,59.8,67.8,64.2,58.4,97,92,80,30.07,29.74,0,0,4,0.23
2012-9-5,73.9,67.7,59.0,69.0,64.1,57.6,97,89,68,29.83,29.67,1,0,9,0.48
2012-9-6,79.4,65.9,56.5,67.9,61.5,55.4,97,87,60,29.88,29.78,0,0,4,0.00
2012-9-7,81.8,69.2,60.5,66.5,63.0,59.6,97,83,51,29.89,29.81,1,0,3,0.00
2012-9-8,78.1,63.9,57.6,66.3,60.2,56.3,97,88,64,29.81,29.47,2,0,10,0.22
2012-9-9,69.4,57.7,49.6,56.6,51.7,48.7,97,82,51,29.89,29.70,1,0,7,0.00
2012-9-10,61.3,52.1,43.3,49.9,43.4,38.4,96,75,45,30.11,29.88,3,1,12,0.00
2012-9-11,69.6,51.8,38.5,50.6,42.4,36.9,96,75,33,30.27,30.11,2,0,9,0.00
2012-9-12,77.9,57.8,42.9,58.4,49.8,41.6,97,78,41,30.36,30.24,1,0,5,0.00
2012-9-13,52.8,50.2,48.5,50.0,48.8,47.4,96,95,94,30.31,30.30,0,0,2,0.00
2012-9-14,80.7,61.4,48.3,59.3,52.7,47.2,97,78,33,30.24,30.03,1,0,11,0.00
2012-9-15,64.0,55.3,46.0,55.4,48.4,43.8,96,79,53,30.11,30.03,2,0,13,0.12
2012-9-16,66.6,52.0,42.2,49.9,43.8,40.6,96,77,40,30.11,30.01,2,0,11,0.00
2012-9-17,75.4,55.4,41.8,54.9,47.4,40.5,95,78,40,30.10,29.97,1,0,4,0.00
2012-9-18,66.9,61.0,50.2,66.0,59.9,48.5,98,96,93,29.97,29.47,3,0,13,4.18
2012-9-19,61.8,52.2,40.8,60.9,45.5,37.9,98,81,46,30.19,29.60,2,0,10,0.10
2012-9-20,64.3,48.5,34.7,49.4,42.1,33.4,97,81,48,30.24,30.07,2,0,6,0.00
2012-9-21,67.4,56.6,48.0,57.2,51.9,46.7,97,85,64,30.07,29.95,2,0,5,0.00
2012-9-22,53.1,52.9,52.8,52.1,51.9,50.9,97,96,96,29.96,29.90,0,0,1,0.00
2012-9-23,57.3,50.0,44.1,56.2,47.3,39.4,97,92,55,30.01,29.80,2,0,7,0.00
2012-9-24,58.1,44.4,34.9,42.1,37.3,33.6,96,79,44,30.16,30.06,2,0,7,0.00
2012-9-25,69.8,53.2,38.5,47.3,40.6,34.1,95,68,30,30.12,30.03,2,1,10,0.00
2012-9-26,65.5,59.2,51.9,58.1,55.0,46.5,96,86,72,30.05,29.95,3,0,9,0.05
2012-9-27,67.8,58.7,51.3,58.2,50.6,43.0,96,77,42,30.16,29.98,2,0,7,0.00
2012-9-28,55.4,52.9,49.2,54.3,51.5,47.6,97,95,92,30.15,29.92,0,0,3,0.77
2012-9-29,55.9,52.8,50.2,53.3,50.3,48.2,97,91,81,29.92,29.85,1,0,7,0.01
2012-9-30,61.6,52.0,46.8,48.7,45.8,42.6,96,81,52,29.86,29.70,2,0,7,0.00
2012-10-1,53.5,51.2,49.9,46.6,45.1,43.8,85,80,76,29.80,29.68,2,1,12,0.00
2012-10-2,59.6,54.0,47.9,58.2,52.5,46.6,97,95,88,30.00,29.92,0,0,3,0.13
2012-10-3,74.4,62.8,57.2,68.6,61.1,56.5,98,95,78,30.07,29.96,1,0,5,0.02
2012-10-4,65.6,62.4,56.9,64.7,61.6,56.1,98,97,96,30.10,30.00,0,0,0,0.84
2012-10-5,75.4,60.4,51.1,60.6,55.0,50.6,98,85,49,30.04,29.88,2,0,12,0.00
2012-10-6,68.8,53.1,39.3,56.9,49.2,37.7,98,88,59,29.95,29.68,3,1,12,0.03
2012-10-7,51.0,43.8,38.2,41.0,37.1,34.5,95,79,54,30.07,29.94,1,0,5,0.06
2012-10-8,52.9,44.2,38.9,40.2,37.0,28.8,95,78,40,30.26,30.04,2,0,6,0.00
2012-10-9,54.5,47.2,38.9,46.5,42.0,36.8,95,83,60,30.25,30.05,2,0,5,0.00
2012-10-10,56.3,49.6,39.5,53.3,46.6,37.9,96,90,64,30.05,29.73,1,0,10,0.23
2012-10-11,53.9,43.4,37.8,38.8,32.4,26.0,96,68,35,30.15,29.89,3,1,15,0.01
2012-10-12,47.3,39.6,30.3,38.0,31.2,21.7,89,73,46,30.40,30.00,3,1,14,0.07
2012-10-13,50.5,37.7,23.5,26.4,21.5,16.6,90,57,27,30.50,30.21,3,1,13,0.00
2012-10-14,69.6,54.8,44.2,54.2,45.6,26.1,95,72,47,30.22,29.83,3,1,13,0.06
2012-10-15,66.0,58.6,48.2,57.1,52.7,47.1,97,82,62,29.85,29.57,3,1,16,0.14
2012-10-16,49.6,43.5,32.2,46.9,34.7,29.9,96,72,53,29.91,29.62,3,1,15,0.00
2012-10-17,65.2,43.4,30.1,42.6,33.5,25.1,94,74,24,29.99,29.86,2,0,7,0.00
2012-10-18,62.1,48.3,34.7,49.1,41.0,33.4,97,78,49,30.01,29.89,3,1,10,0.00
2012-10-19,61.8,56.9,53.1,60.6,55.4,48.1,98,95,84,29.92,29.60,3,0,9,1.70
2012-10-20,63.2,52.2,44.2,55.7,45.0,36.3,99,79,42,29.75,29.58,2,0,9,0.06
2012-10-21,56.6,50.0,41.2,40.3,38.1,35.7,87,65,47,29.95,29.73,3,1,16,0.00
2012-10-22,63.2,51.0,43.9,41.8,39.8,38.1,81,67,40,30.06,29.94,4,1,14,0.00
2012-10-23,52.6,46.6,38.8,50.6,44.4,36.7,97,92,80,30.14,30.03,1,0,3,0.25
2012-10-24,53.1,50.5,49.1,51.2,49.4,48.3,97,96,92,30.15,30.06,0,0,3,0.04
2012-10-25,61.6,53.3,49.6,53.2,50.9,48.8,98,92,73,30.21,30.15,1,0,4,0.00
2012-10-26,70.1,56.2,50.2,53.4,51.3,49.4,97,85,54,30.18,30.05,2,0,7,0.00
2012-10-27,60.1,54.8,50.2,52.4,50.6,48.3,96,86,71,30.08,29.91,1,0,4,0.00
2012-10-28,53.9,51.1,48.0,49.4,44.5,37.6,96,79,56,29.93,29.72,1,0,7,0.00
2012-10-29,58.4,51.2,48.3,55.8,46.4,41.9,92,84,74,29.71,28.83,6,2,24,0.92
2012-10-30,55.1,49.5,47.9,50.7,45.2,42.6,90,85,77,29.39,28.95,6,3,23,0.71
2012-10-31,48.2,40.8,38.8,43.6,36.0,33.3,90,83,78,29.50,29.36,2,1,9,0.08
2012-11-1,45.4,42.1,39.5,39.6,36.5,33.6,90,81,75,29.53,29.46,2,0,10,0.00
2012-11-2,42.5,38.8,34.3,36.2,33.1,30.3,91,80,65,29.70,29.53,2,1,11,0.05
2012-11-3,40.3,35.7,34.1,33.0,30.8,29.0,92,82,70,29.92,29.70,3,1,17,0.03
2012-11-4,39.5,34.9,31.3,30.3,28.1,23.6,88,76,66,29.99,29.92,2,1,14,0.01
2012-11-5,35.6,30.5,26.0,23.6,18.9,14.9,73,62,49,30.16,29.97,3,1,13,0.00
2012-11-6,40.6,27.1,17.5,23.0,17.4,13.5,87,69,37,30.22,30.10,2,0,6,0.00
2012-11-7,34.1,28.3,20.8,24.3,19.6,13.9,89,71,47,30.12,29.89,3,1,13,0.00
2012-11-8,40.1,33.3,29.5,24.1,18.7,13.1,78,55,39,29.95,29.80,3,1,14,0.01
2012-11-9,46.4,37.5,26.1,32.8,23.8,15.8,77,59,35,30.13,29.94,4,1,18,0.00
2012-11-10,49.6,43.5,38.9,40.0,36.5,32.6,92,77,62,30.36,30.13,1,0,5,0.01
2012-11-11,69.6,48.6,37.2,44.2,38.1,34.3,91,71,29,30.43,30.31,1,0,5,0.00
2012-11-12,65.6,54.2,39.5,51.9,44.0,36.4,92,70,47,30.38,30.05,4,2,13,0.00
2012-11-13,59.5,38.4,32.8,54.2,33.1,22.7,95,82,66,30.45,30.01,3,1,13,0.31
2012-11-14,32.9,32.4,31.8,23.0,21.7,20.4,67,64,61,30.47,30.45,2,1,9,0.00
2012-11-15,40.6,28.3,21.1,28.2,21.8,18.4,91,78,47,30.48,30.31,1,0,4,0.00
2012-11-16,44.1,30.0,22.2,27.0,23.3,19.9,91,78,44,30.48,30.30,1,0,7,0.00
2012-11-17,45.8,31.2,23.3,30.9,25.3,21.1,93,80,50,30.66,30.47,3,0,9,0.00
2012-11-18,47.3,30.3,21.6,29.8,24.0,19.6,94,80,41,30.71,30.57,2,0,6,0.00
2012-11-19,48.6,30.0,20.5,30.3,23.2,18.5,93,78,35,30.59,30.26,2,0,5,0.00
2012-11-20,52.8,35.2,24.8,31.0,24.6,16.8,89,70,24,30.28,30.07,2,0,6,0.00
2012-11-21,52.0,34.4,26.6,30.5,24.7,19.0,85,71,27,30.26,30.12,2,0,4,0.00
2012-11-22,56.6,34.5,24.5,31.6,25.0,19.0,89,72,26,30.30,30.09,2,0,3,0.00
2012-11-23,58.1,41.3,25.7,40.2,29.7,22.7,89,67,34,30.10,29.58,2,1,13,0.01
2012-11-24,44.3,32.0,27.0,34.5,21.2,16.1,86,64,50,29.75,29.58,4,2,18,0.01
2012-11-25,32.4,29.3,26.6,22.5,19.6,14.8,84,67,55,29.85,29.74,3,2,18,0.00
2012-11-26,37.6,32.5,29.1,24.2,21.6,18.9,78,64,49,30.20,29.84,3,1,14,0.00
2012-11-27,32.7,30.4,28.4,29.5,26.5,22.7,91,85,76,30.27,30.19,1,0,5,0.05
2012-11-28,31.2,27.1,20.6,24.0,20.6,17.3,88,77,61,30.22,30.13,2,0,9,0.00
2012-11-29,39.2,29.5,20.2,23.4,20.4,16.7,87,70,44,30.29,30.17,3,1,14,0.00
2012-11-30,35.6,30.7,26.3,28.5,25.2,21.0,89,80,63,30.43,30.23,1,0,4,0.01
2012-12-1,34.7,30.9,27.8,33.7,28.4,24.0,96,90,85,30.50,30.40,1,0,6,0.02
2012-12-2,54.1,42.8,34.0,45.4,38.7,33.2,98,86,63,30.41,29.99,3,1,12,0.16
2012-12-3,49.1,43.5,30.9,46.1,39.0,29.6,95,85,69,30.26,30.01,2,0,10,0.00
2012-12-4,59.5,47.4,31.3,50.8,43.6,29.6,97,88,66,30.25,29.83,4,1,15,0.00
2012-12-5,59.8,38.4,25.8,50.0,30.8,15.6,93,75,58,30.22,29.80,4,2,24,0.13
2012-12-6,37.2,25.4,19.4,23.9,16.3,11.8,87,69,42,30.37,30.20,2,0,9,0.01
2012-12-7,34.3,29.5,21.8,32.7,26.0,17.8,96,87,65,30.24,30.00,2,0,4,0.07
2012-12-8,45.2,38.7,33.7,44.1,37.7,32.5,97,96,95,30.01,29.80,2,0,7,0.02
2012-12-9,44.2,38.3,33.4,43.4,30.8,24.3,97,75,55,30.24,29.95,3,1,12,0.03
2012-12-10,56.7,46.7,36.6,49.4,43.6,34.1,98,89,72,30.02,29.47,4,1,15,0.18
2012-12-11,39.8,33.5,27.0,36.4,27.8,21.8,95,80,61,30.17,29.59,3,1,16,0.05
2012-12-12,27.3,25.5,23.8,21.7,21.0,20.2,86,83,81,30.22,30.16,1,0,3,0.00
2012-12-13,37.2,26.8,20.6,25.5,21.6,17.9,91,82,55,30.49,30.31,2,0,5,0.00
2012-12-14,42.2,29.5,18.9,27.4,22.3,16.5,92,76,44,30.29,30.11,2,0,10,0.00
2012-12-15,42.8,34.7,28.4,29.3,26.7,24.7,87,73,51,30.28,30.16,2,0,5,0.00
2012-12-16,34.6,33.8,33.1,32.2,29.7,25.3,91,85,72,30.17,29.91,3,1,12,0.01
2012-12-17,39.1,36.2,33.8,37.5,33.8,30.6,94,91,88,29.92,29.64,2,1,9,0.26
2012-12-18,45.7,40.2,35.8,43.2,38.0,32.3,96,92,84,29.65,29.39,3,1,15,0.49
2012-12-19,39.3,35.2,31.9,32.1,24.9,21.6,87,66,56,30.08,29.56,3,2,15,0.00
2012-12-20,37.5,31.0,22.2,31.7,23.0,18.9,93,73,54,30.20,29.77,3,1,12,0.00
2012-12-21,44.3,35.8,32.2,42.1,31.9,25.1,95,86,74,29.79,29.03,6,2,20,1.94
2012-12-22,33.2,27.7,25.0,27.8,20.6,16.8,88,75,64,29.76,29.18,4,3,23,0.00
2012-12-23,34.6,30.0,27.8,21.9,19.3,15.3,74,64,48,29.87,29.75,4,2,17,0.01
2012-12-24,33.2,29.1,25.6,20.1,17.8,15.1,73,62,52,30.06,29.86,3,1,13,0.00
2012-12-25,31.2,27.9,24.5,26.1,22.6,18.9,88,80,73,30.26,29.89,2,0,7,0.00
2012-12-26,30.0,23.6,14.9,27.2,16.8,10.2,93,77,46,30.30,29.67,4,1,12,0.00
2012-12-27,30.3,26.7,21.3,28.6,23.8,15.3,95,88,77,29.84,29.45,3,1,11,0.00
2012-12-28,27.0,24.1,21.3,21.3,19.7,15.5,87,83,78,30.08,29.84,3,1,13,0.00
2012-12-29,25.4,22.6,18.8,23.4,19.9,15.8,92,89,85,30.05,29.55,1,0,4,0.00
2012-12-30,25.1,21.4,18.3,21.8,13.7,10.1,88,72,56,30.14,29.59,4,2,19,0.00
2012-12-31,33.4,26.3,17.3,21.9,17.3,10.7,81,69,51,30.14,29.79,3,1,12,0.05
2013-1-1,30.6,24.6,10.5,24.7,15.6,4.4,81,69,54,29.98,29.76,3,2,18,0.00